This is the latest recevied weather packets stored in our database for station/object OK2ZAW-16. If no packets are shown the sender has not sent any weather packets the latest 1 day(s).
| Time | Temp. | Humidity | Pressure | Rain* | Wind** | Luminosity | Snow |
|---|---|---|---|---|---|---|---|
| 1778097208 | 8.33° C | 75% | 1008.1 hPa | - | - | 130 W/m² | - |
| 1778096590 | 8.89° C | 74% | 1008.1 hPa | - | - | 130 W/m² | - |
| 1778096275 | 8.89° C | 73% | 1008.2 hPa | - | - | 130 W/m² | - |
| 1778095966 | 9.44° C | 72% | 1008.3 hPa | - | - | 130 W/m² | - |
| 1778095046 | 9.44° C | 72% | 1008.3 hPa | - | - | 130 W/m² | - |
| 1778092575 | 10° C | 71% | 1008 hPa | - | - | 131 W/m² | - |
| 1778092260 | 10° C | 71% | 1007.9 hPa | - | - | 131 W/m² | - |
| 1778091951 | 10° C | 71% | 1007.6 hPa | - | - | 131 W/m² | - |
| 1778090722 | 10.56° C | 69% | 1007.3 hPa | - | - | 131 W/m² | - |
| 1778090413 | 10° C | 69% | 1007.2 hPa | - | - | 131 W/m² | - |
| 1778090098 | 10° C | 69% | 1007.3 hPa | - | - | 131 W/m² | - |
| 1778089789 | 10° C | 69% | 1007.3 hPa | - | - | 131 W/m² | - |
| 1778089480 | 10° C | 69% | 1007.4 hPa | - | - | 131 W/m² | - |
| 1778088560 | 10° C | 68% | 1007.5 hPa | - | - | 131 W/m² | - |
| 1778088251 | 10° C | 68% | 1007.5 hPa | - | - | 131 W/m² | - |
| 1778087936 | 10° C | 68% | 1007.3 hPa | - | - | 131 W/m² | - |
| 1778087661 | 10° C | 68% | 1007.4 hPa | - | - | 131 W/m² | - |
| 1778087627 | 10° C | 68% | 1007.4 hPa | - | - | 131 W/m² | - |
| 1778085774 | 10.56° C | 66% | 1007.5 hPa | - | - | 131 W/m² | - |
| 1778083927 | 10.56° C | 64% | 1007.6 hPa | - | - | 131 W/m² | - |
| 1778083054 | 11.67° C | 62% | 1008 hPa | - | - | 132 W/m² | - |
| 1778082994 | 11.67° C | 62% | 1008 hPa | - | - | 132 W/m² | - |
| 1778082685 | 11.67° C | 62% | 1008 hPa | - | - | 132 W/m² | - |
| 1778082376 | 12.22° C | 61% | 1008.1 hPa | - | - | 132 W/m² | - |
| 1778082073 | 13.33° C | 60% | 1008.1 hPa | - | - | 132 W/m² | - |
* Rain since midnight (hover to see other rain measurements)
** Current wind speed in m/s (hover to see current wind gust speed)